Weather History for Dover AFB, DE

Change the Weather History Date:

Tuesday, October 8, 2013

  Actual Average Record
Temperature  
Mean Temperature 58 °F -  
Max Temperature 64 °F 70 °F 88 °F (2007)
Min Temperature 52 °F 47 °F 35 °F (1954)
Degree Days  
Heating Degree Days 7    
Growing Degree Days 8 (Base 50)    
Moisture  
Dew Point 48 °F    
Average Humidity 71    
Maximum Humidity 85    
Minimum Humidity 51    
Precipitation  
Precipitation 0.00 in - - ()
Sea Level Pressure  
Sea Level Pressure 30.21 in    
Wind  
Wind Speed 10 mph (North)    
Max Wind Speed 17 mph    
Max Gust Speed 25 mph    
Visibility 10 miles    
Events      
Averages and records for this station are not official NWS values.
T = Trace of Precipitation, MM = Missing Value Source: NWS Daily Summary

Daily Weather History Graph

Daily Weather History Graph

Search for Another Location

Airport:

Trip Planner

Search our weather history database for the weather conditions in past years. The results will help you decide how hot, cold, wet, or windy it might be!

Date:

Astronomy

Oct. 08, 2013 Rise Set
Actual Time 7:04 AM EDT 6:33 PM EDT
Civil Twilight 6:38 AM EDT 6:59 PM EDT
Nautical Twilight 6:07 AM EDT 7:30 PM EDT
Astronomical Twilight 5:35 AM EDT 8:01 PM EDT
Moon 10:54 AM EDT (10/8) 9:09 PM EDT (10/8)
Length of Visible Light 12h 21m
Length of Day
11h 28m
Waxing Crescent, 16% of the Moon is Illuminated
Oct 8
Waxing Crescent
Oct 11
First Quarter
Oct 18
Full
Oct 26
Last Quarter
Nov 3
New

Hourly Weather History & Observations

Time (EDT) Temp. Dew Point Humidity Pressure Visibility Wind Dir Wind Speed Gust Speed Precip Events Conditions
12:58 AM 59.4 °F 51.1 °F 74% 30.07 in 10.0 mi NW 8.1 mph - N/A   Overcast
1:58 AM 55.6 °F 48.9 °F 78% 30.09 in 10.0 mi NW 9.2 mph - N/A   Clear
2:58 AM 55.2 °F 47.1 °F 74% 30.10 in 10.0 mi NW 10.4 mph - N/A   Clear
3:58 AM 52.9 °F 46.9 °F 80% 30.12 in 10.0 mi NW 6.9 mph - N/A   Clear
4:58 AM 52.9 °F 47.5 °F 82% 30.13 in 10.0 mi NW 9.2 mph - N/A   Clear
5:58 AM 53.1 °F 47.5 °F 81% 30.15 in 10.0 mi NNW 9.2 mph - N/A   Clear
6:58 AM 52.3 °F 47.7 °F 84% 30.18 in 10.0 mi NNW 10.4 mph - N/A   Clear
7:58 AM 52.7 °F 48.2 °F 85% 30.21 in 10.0 mi NNW 10.4 mph - N/A   Clear
8:58 AM 55.4 °F 49.8 °F 81% 30.23 in 10.0 mi NNW 10.4 mph - N/A   Clear
9:58 AM 58.8 °F 48.4 °F 68% 30.24 in 10.0 mi North 16.1 mph - N/A   Clear
10:58 AM 59.7 °F 48.2 °F 66% 30.25 in 10.0 mi North 17.3 mph 23.0 mph N/A   Clear
11:58 AM 62.4 °F 48.7 °F 61% 30.24 in 10.0 mi North 17.3 mph 25.3 mph N/A   Partly Cloudy
12:58 PM 63.9 °F 47.7 °F 56% 30.24 in 10.0 mi North 15.0 mph - N/A   Partly Cloudy
1:58 PM 64.4 °F 46.2 °F 52% 30.24 in 10.0 mi North 12.7 mph - N/A   Clear
2:58 PM 64.2 °F 45.7 °F 51% 30.23 in 10.0 mi NNE 12.7 mph - N/A   Partly Cloudy
3:58 PM 63.7 °F 46.6 °F 54% 30.22 in 10.0 mi North 10.4 mph 16.1 mph N/A   Partly Cloudy
4:58 PM 62.8 °F 47.3 °F 57% 30.23 in 10.0 mi North 9.2 mph - N/A   Clear
5:58 PM 60.1 °F 49.3 °F 67% 30.25 in 10.0 mi North 6.9 mph - N/A   Clear
6:58 PM 57.0 °F 49.5 °F 76% 30.25 in 10.0 mi NNE 5.8 mph - N/A   Clear
7:58 PM 57.0 °F 50.0 °F 77% 30.26 in 10.0 mi Variable 3.5 mph - N/A   Clear
8:58 PM 57.2 °F 50.9 °F 79% 30.27 in 10.0 mi North 4.6 mph - N/A   Clear
9:58 PM 55.4 °F 50.2 °F 83% 30.27 in 10.0 mi NNE 8.1 mph - N/A   Clear
10:58 PM 59.5 °F 50.4 °F 72% 30.28 in 10.0 mi NNE 8.1 mph - N/A   Clear
11:58 PM 60.8 °F 48.2 °F 63% 30.27 in 10.0 mi NE 10.4 mph - N/A   Clear